TimeCDT,TemperatureF,Dew PointF,Humidity,Sea Level PressureIn,VisibilityMPH,Wind Direction,Wind SpeedMPH,Gust SpeedMPH,PrecipitationIn,Events,Conditions,WindDirDegrees,DateUTC
12:14 AM,30.2,28.4,93,30.02,10.0,WNW,8.1,-,N/A,,Clear,290,2012-10-10 05:14:00
12:35 AM,32.0,28.4,87,30.02,10.0,WNW,6.9,-,N/A,,Clear,290,2012-10-10 05:35:00
12:55 AM,30.2,28.4,93,30.02,10.0,WNW,6.9,-,N/A,,Clear,290,2012-10-10 05:55:00
1:14 AM,30.2,26.6,86,30.02,10.0,West,6.9,-,N/A,,Clear,260,2012-10-10 06:14:00
1:35 AM,30.2,28.4,93,30.03,10.0,West,8.1,-,N/A,,Clear,260,2012-10-10 06:35:00
1:55 AM,30.2,28.4,93,30.03,10.0,West,5.8,-,N/A,,Clear,270,2012-10-10 06:55:00
2:15 AM,30.2,28.4,93,30.03,10.0,West,6.9,-,N/A,,Clear,280,2012-10-10 07:15:00
2:35 AM,30.2,28.4,93,30.03,10.0,West,5.8,-,N/A,,Clear,280,2012-10-10 07:35:00
2:54 AM,26.6,26.6,100,30.03,10.0,WSW,4.6,-,N/A,,Clear,250,2012-10-10 07:54:00
3:15 AM,28.4,26.6,93,30.02,10.0,WSW,5.8,-,N/A,,Scattered Clouds,250,2012-10-10 08:15:00
3:35 AM,28.4,26.6,93,30.02,10.0,WSW,4.6,-,N/A,,Mostly Cloudy,240,2012-10-10 08:35:00
3:54 AM,28.4,28.4,100,30.02,10.0,West,5.8,-,N/A,,Mostly Cloudy,260,2012-10-10 08:54:00
4:15 AM,28.4,28.4,100,30.02,10.0,WSW,5.8,-,N/A,,Mostly Cloudy,250,2012-10-10 09:15:00
4:35 AM,28.4,26.6,93,30.03,10.0,SW,5.8,-,N/A,,Scattered Clouds,230,2012-10-10 09:35:00
4:55 AM,28.4,26.6,93,30.03,10.0,SW,4.6,-,N/A,,Mostly Cloudy,230,2012-10-10 09:55:00
5:15 AM,28.4,26.6,93,30.03,10.0,SW,5.8,-,N/A,,Overcast,230,2012-10-10 10:15:00
5:35 AM,28.4,28.4,100,30.03,10.0,SW,4.6,-,N/A,,Mostly Cloudy,230,2012-10-10 10:35:00
5:55 AM,28.4,28.4,100,30.03,10.0,SSW,3.5,-,N/A,,Mostly Cloudy,210,2012-10-10 10:55:00
6:15 AM,30.2,28.4,93,30.03,10.0,SSW,3.5,-,N/A,,Overcast,210,2012-10-10 11:15:00
6:35 AM,30.2,28.4,93,30.02,10.0,SW,4.6,-,N/A,,Overcast,220,2012-10-10 11:35:00
6:55 AM,30.2,28.4,93,30.02,10.0,SSW,4.6,-,N/A,,Scattered Clouds,200,2012-10-10 11:55:00
7:15 AM,28.4,28.4,100,30.03,10.0,SSW,5.8,-,N/A,,Clear,200,2012-10-10 12:15:00
7:34 AM,28.4,28.4,100,30.03,10.0,Calm,Calm,-,N/A,,Clear,0,2012-10-10 12:34:00
7:55 AM,28.4,26.6,93,30.03,10.0,SSW,3.5,-,N/A,,Clear,200,2012-10-10 12:55:00
8:34 AM,30.2,28.4,93,30.02,10.0,South,3.5,-,N/A,,Clear,190,2012-10-10 13:34:00
8:55 AM,30.2,30.2,100,30.02,10.0,SW,5.8,-,N/A,,Clear,220,2012-10-10 13:55:00
9:14 AM,32.0,30.2,93,30.02,10.0,SW,4.6,-,N/A,,Clear,220,2012-10-10 14:14:00
9:35 AM,33.8,30.2,87,30.03,10.0,SW,5.8,-,N/A,,Clear,220,2012-10-10 14:35:00
9:55 AM,35.6,33.8,93,30.04,10.0,WSW,6.9,-,N/A,,Clear,240,2012-10-10 14:55:00
10:13 AM,37.4,33.8,87,30.03,10.0,SW,6.9,-,N/A,,Clear,230,2012-10-10 15:13:00
10:35 AM,39.2,33.8,81,30.03,10.0,West,4.6,-,N/A,,Clear,260,2012-10-10 15:35:00
10:54 AM,41.0,35.6,81,30.02,10.0,WSW,5.8,-,N/A,,Clear,240,2012-10-10 15:54:00
11:15 AM,42.8,33.8,70,30.03,10.0,WSW,4.6,-,N/A,,Clear,250,2012-10-10 16:15:00
11:55 AM,44.6,33.8,66,30.02,10.0,West,3.5,-,N/A,,Clear,260,2012-10-10 16:55:00
12:15 PM,46.4,32.0,57,30.02,10.0,West,9.2,-,N/A,,Clear,270,2012-10-10 17:15:00
12:34 PM,48.2,30.2,50,30.01,10.0,WSW,6.9,-,N/A,,Clear,250,2012-10-10 17:34:00
12:55 PM,48.2,30.2,50,30.01,10.0,WSW,8.1,-,N/A,,Clear,240,2012-10-10 17:55:00
1:14 PM,48.2,28.4,46,30.00,10.0,West,9.2,-,N/A,,Clear,260,2012-10-10 18:14:00
1:35 PM,48.2,28.4,46,29.98,10.0,West,11.5,16.1,N/A,,Clear,260,2012-10-10 18:35:00
1:55 PM,50.0,24.8,37,29.98,10.0,West,12.7,-,N/A,,Clear,280,2012-10-10 18:55:00
2:14 PM,50.0,24.8,37,29.97,10.0,WSW,10.4,-,N/A,,Clear,250,2012-10-10 19:14:00
2:35 PM,50.0,23.0,35,29.96,10.0,West,9.2,-,N/A,,Clear,270,2012-10-10 19:35:00
2:55 PM,50.0,24.8,37,29.95,10.0,West,10.4,-,N/A,,Scattered Clouds,280,2012-10-10 19:55:00
3:15 PM,50.0,21.2,32,29.94,10.0,West,5.8,-,N/A,,Mostly Cloudy,270,2012-10-10 20:15:00
3:35 PM,50.0,21.2,32,29.93,10.0,WSW,9.2,-,N/A,,Overcast,240,2012-10-10 20:35:00
3:55 PM,50.0,26.6,40,29.93,10.0,SW,11.5,-,N/A,,Mostly Cloudy,220,2012-10-10 20:55:00
4:15 PM,46.4,32.0,57,29.93,10.0,WSW,9.2,19.6,N/A,Rain,Rain,240,2012-10-10 21:15:00
4:35 PM,44.6,35.6,71,29.91,10.0,Calm,Calm,-,N/A,,Light Drizzle,0,2012-10-10 21:35:00
4:55 PM,44.6,35.6,71,29.90,10.0,SSE,3.5,-,N/A,,Light Drizzle,150,2012-10-10 21:55:00
5:15 PM,44.6,35.6,71,29.90,10.0,SE,3.5,-,N/A,,Scattered Clouds,140,2012-10-10 22:15:00
5:35 PM,44.6,37.4,76,29.90,10.0,SE,4.6,-,N/A,,Scattered Clouds,130,2012-10-10 22:35:00
5:54 PM,44.6,37.4,76,29.89,10.0,East,5.8,-,N/A,,Mostly Cloudy,100,2012-10-10 22:54:00
6:15 PM,42.8,37.4,81,29.88,10.0,ENE,8.1,-,N/A,,Overcast,70,2012-10-10 23:15:00
6:35 PM,42.8,37.4,81,29.88,10.0,ENE,5.8,-,N/A,,Overcast,70,2012-10-10 23:35:00
6:54 PM,42.8,37.4,81,29.88,10.0,East,6.9,-,N/A,,Overcast,90,2012-10-10 23:54:00
7:15 PM,42.8,37.4,81,29.87,10.0,East,8.1,-,N/A,,Overcast,80,2012-10-11 00:15:00
7:35 PM,42.8,37.4,81,29.88,10.0,ENE,10.4,-,N/A,,Overcast,70,2012-10-11 00:35:00
7:54 PM,41.0,37.4,87,29.89,10.0,NE,6.9,10.4,N/A,Rain,Light Rain,50,2012-10-11 00:54:00
8:15 PM,41.0,37.4,87,29.88,10.0,ENE,10.4,-,N/A,,Light Drizzle,70,2012-10-11 01:15:00
8:35 PM,41.0,37.4,87,29.88,10.0,ENE,9.2,-,N/A,Rain,Rain,70,2012-10-11 01:35:00
8:54 PM,39.2,37.4,93,29.89,10.0,NE,10.4,-,N/A,Rain,Light Rain,40,2012-10-11 01:54:00
9:15 PM,39.2,37.4,93,29.89,10.0,NE,10.4,-,0.01,Rain,Light Rain,40,2012-10-11 02:15:00
9:35 PM,39.2,37.4,93,29.90,10.0,NE,11.5,-,0.01,Rain,Light Rain,50,2012-10-11 02:35:00
9:55 PM,39.2,37.4,93,29.90,10.0,ENE,11.5,-,0.01,Rain,Light Rain,60,2012-10-11 02:55:00
10:15 PM,39.2,37.4,93,29.90,10.0,NE,10.4,-,N/A,,Light Drizzle,50,2012-10-11 03:15:00
10:55 PM,39.2,37.4,93,29.92,10.0,NE,10.4,-,N/A,,Overcast,40,2012-10-11 03:55:00
11:15 PM,39.2,37.4,93,29.92,10.0,NE,9.2,-,N/A,,Overcast,40,2012-10-11 04:15:00
11:34 PM,39.2,37.4,93,29.93,10.0,NNE,10.4,-,N/A,,Overcast,30,2012-10-11 04:34:00
11:55 PM,39.2,37.4,93,29.93,10.0,North,13.8,-,N/A,,Overcast,10,2012-10-11 04:55:00